Regional Weather Roundup
Issued by NWS Wakefield, VA

Home | Current Version | Previous Version | Text Only | Print | Product List | Glossary On
Versions: 1 2 3 4 5 6 7 8 9 10 11 12 13 14 15 16 17 18 19 20 21 22 23 24 25 26 27 28 29 30 31 32 33 34 35 36 37 38 39 40 41 42 43 44 45 46 47 48 49 50
069
ASUS41 KAKQ 230515
RWRAKQ

REGIONAL WEATHER ROUNDUP
NATIONAL WEATHER SERVICE WAKEFIELD VA
100 AM EDT THU MAR 23 2017

Note: "fair" indicates few or no clouds below 12,000 feet with no
significant weather and/or obstructions to visibility. * = Denotes
station may not report precipitation (e.g., rain,snow,etc.),
thunder or fog.

VAZ042-051-052>054-056-230600-
NORTHERN VIRGINIA

CITY           SKY/WX    TMP DP  RH WIND       PRES   REMARKS
WASH NATIONAL  PTCLDY    37   3  24 N14       30.50R
DULLES         PTCLDY    34   5  29 N7        30.49R
FORT BELVOIR   CLEAR     33   8  35 N3        30.49R
QUANTICO       CLEAR     37  10  32 N9        30.50R
FREDERICKSBRG* PTCLDY    36  12  37 N3        30.48R
STAFFORD*      PTCLDY    32   8  36 CALM      30.52R
WARRENTON      CLEAR     33   4  29 NE5       30.47R
CULPEPER*      PTCLDY    30  13  48 CALM      30.49R
MANASSAS*      PTCLDY    32   8  36 N7        30.49R
LEESBURG*      CLEAR     32  16  51 N5        30.50R
WINCHESTER     CLEAR     28   9  43 CALM      30.47R
FRONT ROYAL*   CLEAR     32   9  37 CALM      30.46R
LURAY*         CLOUDY    34  12  40 NE3       30.45R
$$

VAZ048-049-060>072-079>083-230600-
CENTRAL AND SOUTH CENTRAL VIRGINIA

CITY           SKY/WX    TMP DP  RH WIND       PRES   REMARKS
RICHMOND       PTCLDY    37  10  32 NE7       30.46S
CHESTERFIELD*  FAIR      37   1  22 CALM      30.48R
PETERSBURG*    PTCLDY    31  14  49 N3        30.47S
HANOVER        CLEAR     34  10  37 CALM      30.48S
TAPPAHANNOCK*  CLEAR     37  -7  15 N5        30.47S
QUINTON*       FAIR      37  10  33 E3        30.46S
CHARLOTTSVILLE CLEAR     38   6  26 CALM      30.44S
GORDONSVILLE*  CLOUDY    32  12  43 CALM      30.46R
ORANGE*        PTCLDY    32  10  40 NE5       30.47S
LOUISA*        CLEAR     36  12  38 E3        30.44S
BUMPASS*       FAIR      34   7  31 CALM      30.46S
FARMVILLE*     CLEAR     35  14  42 CALM      30.45R
CREWE*         FAIR      32  15  49 E3        30.46R
FORT PICKETT*  FAIR      35   2  25 MISG      30.46R
CHASE CITY*    FAIR      35  10  36 CALM      30.46R
CLARKSVILLE*   FAIR      41  16  36 E5        30.46R
SOUTH HILL*    CLEAR     31  21  67 CALM      30.52R
LAWRENCEVILLE* FAIR      36  10  34 CALM      30.47R
EMPORIA*       CLEAR     34  14  44 CALM      30.49R
$$

VAZ088>098-230600-
SOUTHEAST VIRGINIA

CITY           SKY/WX    TMP DP  RH WIND       PRES   REMARKS
NORFOLK        CLEAR     40  17  39 NE10      30.46R
VIRGINIA BEACH CLEAR     38  15  39 NE10      30.45R
NORFOLK NAVAL  CLEAR     40  17  39 NE10      30.47R
WEST POINT*    PTCLDY    36   8  31 CALM      30.47F
SALUDA*        FAIR      37  19  49 NE5       30.46S
NEWPORT NEWS   CLEAR     38  17  42 NE5       30.47R
LANGLEY AFB    CLEAR     39  20  46 NE9       30.46R
FORT EUSTIS    CLEAR     38  12  34 VRB3      30.44R
WILLIAMSBURG*  CLEAR     37  16  41 CALM      30.47S
HR EXEC AP*    FAIR      39  19  45 NE5       30.45S
FRANKLIN*      CLEAR     30  20  66 CALM      30.47R
US460-WAKEFLD  PTCLDY    30  18  60 CALM      30.47R
$$

VAZ020-022-025-037-045-230600-
WEST CENTRAL AND SOUTHWEST VIRGINIA

CITY           SKY/WX    TMP DP  RH WIND       PRES   REMARKS
STAUNTON*      CLEAR     28  10  47 CALM      30.46R
WAYNESBORO*    CLEAR     32   8  36 N6        30.42F
HOT SPRINGS VA CLOUDY    27   5  39 W3        30.33S
LYNCHBURG      PTCLDY    32  14  47 CALM      30.45R
DANVILLE       CLEAR     35  17  47 NE5       30.45R
SOUTH BOSTON*  FAIR      35  16  45 NE3       30.46R
MARTINSVILLE   CLEAR     33  15  49 CALM      30.46R
ROANOKE        PTCLDY    38  12  34 CALM      30.45R
BLACKSBURG     CLEAR     31  17  56 CALM      30.42R
DUBLIN*        CLEAR     33  15  48 NW3       30.41S
MARION*        CLOUDY    30  21  67 CALM      30.41R
HILLSVILLE*    CLEAR     33  13  43 CALM      30.36S
RICHLANDS*     FAIR      33  15  47 CALM      30.37S
WISE*          CLEAR     34  14  44 CALM      30.37S
ABINGDON*      CLEAR     39  18  41 E8        30.37R
$$

MDZ021>025-VAZ099-100-230600-
SOUTHERN MARYLAND AND THE DELMARVA PENINSULA

CITY           SKY/WX    TMP DP  RH WIND       PRES   REMARKS
PATUXENT RIVER CLEAR     34  13  41 NE16      30.47S WCI  24
BAY BRIDGE APT CLEAR     32   7  34 N6        30.51R
LEONARDTOWN    CLEAR     34  14  44 CALM      30.49R
DOVER          CLEAR     26  11  53 N9        30.49R
GEORGETOWN     PTCLDY    31   7  36 N8        30.49R
EASTON         PTCLDY    30   7  37 NE5       30.53R
CAMBRIDGE      CLEAR     32   5  32 NE8       30.49R
SALISBURY      PTCLDY    30   7  37 N8        30.47S
OCEAN CITY     CLEAR     33   8  35 N10       30.47R WCI  25
WALLOPS ISLAND CLEAR     31   8  38 N6        30.47R
ACCOMACK*      CLEAR     34   7  32 N8        30.47R
$$

NCZ012>017-030>032-230600-
NORTH CENTRAL AND EASTERN NORTH CAROLINA

CITY           SKY/WX    TMP DP  RH WIND       PRES   REMARKS
ROANOKE RAPIDS FAIR      36  18  48 NE3       30.47R
RALEIGH        PTCLDY    39  16  39 E7        30.45R
ELIZABETH CITY PTCLDY    38  24  57 NE7       30.46R
AHOSKIE*       NOT AVBL
EDENTON*       PTCLDY    38  27  62 CALM      30.47R
CURRITUCK*     PTCLDY    42  20  41 NE10G17   30.46R
KILL DEVIL HLS NOT AVBL
MANTEO         PTCLDY    40  28  61 NE10      30.46R
CAPE HATTERAS  CLEAR     44  25  47 NE9G18    30.44R
TARBORO*       NOT AVBL
GOLDSBORO      CLEAR     38  24  57 NE5       30.43R
WASHINGTON     CLEAR     35  29  79 CALM      30.46R
GREENVILLE     PTCLDY    36  27  69 CALM      30.46R
NEW BERN       CLEAR     41  29  62 E8        30.45S
WILMINGTON     CLEAR     41  30  65 NE12      30.41S
$$

VAZ048-230600-
ELSEWHERE

CITY           SKY/WX    TMP DP  RH WIND       PRES   REMARKS
HARRISBURG PA  CLEAR     27   5  39 N6        30.49R
BALTIMORE      CLEAR     32   4  30 N7        30.49R
ANNAPOLIS      CLEAR     36  12  37 NE7       30.50R
ANDREWS AFB    PTCLDY    30   8  39 NE8       30.47R
PHILADELPHIA   CLEAR     27  -1  30 N10       30.51R WCI  17
HENDERSON NC   CLEAR     31  19  61 NE3       30.45S
GREENSBORO     CLEAR     39  14  36 E8        30.42R
ROCKY MOUNT    PTCLDY    35  26  69 NE5       30.46R
$$

VAZ100-230600-
MARINE

STATION/POSITION TIME  TEMP    WIND        PRES    WAVE   SWELL
                       AIR SEA DIR/SP/G            HT/PER HT/PER
                 (UTC) (F)     (DEG/KT/KT) (MB)    (FT/S) (FT/S)
CAPE MAY NJ      0448   31 42   10/  9/ 16 1031.9R
LEWES DE         0448   34 42   20/ 19/ 22 1032.4R
OCEAN-CITY-INLET 0448   35 46   30/ 14/ 21 1032.2R
WACHAPREAGUE VA  0448   34 50   10/  5/ 10 1031.5R
THOMAS POINT MD  0500   35 43   30/ 18/ 20   N/A
GOOSES REEF MD   0500   36 43   70/ 17/ 19 1032.4    2/ 3
COVE POINT MD    0448   35      50/ 13/ 19 1032.7R
BISHOPS HEAD MD  0448   35 45   20/ 11/ 15 1032.1R
PINEY POINT MD   0448           70/  7/  9   N/A
POTOMAC MD       0500   37 46   40/ 14/ 17 1031.4    1/ 2
CAMBRIDGE MD     0448   34 44   20/ 11/ 13 1031.7R
LEWISETTA VA     0448   38 48   60/ 11/ 15 1031.6R
RAPPAHANNOCK LGT 0448           30/ 19/ 22 1032.1R
STINGRAY PT      0450   39      60/ 17/ 21 1031.5R
YORK RVR RNG VA  0448   41      50/ 17/ 19 1030.8R
YORKTOWN VA      0448   41 49   40/  8/ 10 1031.1R
JAMESTOWN VA     0500   40 50   10/  2/  4   N/A     0
DOMINION TERM VA 0448   42      40/  4/  8 1031.5R
KIPTOPEKE VA     0448      47   50/  4/  7   N/A
CHES BAY BRIDGE  0448   41 47   60/ 15/ 17 1031.3R
CAPE HENRY VA    0448   41      30/ 15/ 19   N/A
WILLOUBY STN VA  0448   42      40/ 11/ 13 1032.3R
S CRANEY ISL VA  0448   43      50/ 11/ 15 1031.1R
CAPE HENRY BUOY  0442      45                N/A     6/ 8   2/11
CAPE CHARLES BUO 0451      45                N/A     6/ 8   2/11
OFFSHORE WE BUOY 0451      46                N/A     8/ 8   2/11
64NM E OF VA BCH 0450   42 49   10/ 21/ 27 1030.0R  10/ 8   7/ 8
DUCK PIER NC     0448   42 48   40/ 15/ 17 1030.7R
44100 DUCK FRF   0435      47                N/A     7/ 8   2/11
44056 DUCK FRF   0430      47                N/A     6/ 8   2/11
OREGON INLET NC  0442   42 51   20/ 12/ 15 1031.1R
HATTERAS NC      0448   44 55   40/ 10/ 16 1030.2S
DIAMOND SHLS NC  0450   47 75   30/ 21/ 29 1029.8S  10/11   5/11
CAPE LOOKOUT NC  0500   47      30/ 17/ 21 1029.9R
$$




USA.gov is the U.S. government's official web portal to all federal, state and local government web resources and services.